| time (UTC) | temp C | wind direction | speed KPH | gust KPH | rain 1hr cm | rain 24hr cm | rain mn cm | humidity % | barometer mb |
| 20260509072756 | 23 | 227 | 3.2 | 3.2 | 0.00 | 0.00 | 0.00 | 23 | 1012.9 |
| 20260509072253 | 23 | 215 | 1.6 | 4.8 | 0.00 | 0.00 | 0.00 | 24 | 1013.1 |
| 20260509071750 | 23 | 206 | 3.2 | 3.2 | 0.00 | 0.00 | 0.00 | 27 | 1013.1 |
| 20260509071247 | 23 | 194 | 3.2 | 3.2 | 0.00 | 0.00 | 0.00 | 28 | 1013.3 |
| 20260509070744 | 23 | 211 | 1.6 | 3.2 | 0.00 | 0.00 | 0.00 | 23 | 1013.1 |
| 20260509070240 | 23 | 193 | 1.6 | 3.2 | 0.00 | 0.00 | 0.00 | 21 | 1013.2 |
| 20260509065737 | 22 | 213 | 3.2 | 3.2 | 0.00 | 0.00 | 0.00 | 21 | 1013.2 |
| 20260509065233 | 22 | 269 | 0.0 | 3.2 | 0.00 | 0.00 | 0.00 | 19 | 1013.2 |
| 20260509064729 | 23 | 218 | 3.2 | 3.2 | 0.00 | 0.00 | 0.00 | 19 | 1013.2 |
| 20260509064227 | 24 | 124 | 0.0 | 3.2 | 0.00 | 0.00 | 0.00 | 20 | 1013.3 |
| 20260509063724 | 25 | 230 | 0.0 | 1.6 | 0.00 | 0.00 | 0.00 | 21 | 1013.2 |
| 20260509063220 | 24 | 150 | 0.0 | 3.2 | 0.00 | 0.00 | 0.00 | 21 | 1013.1 |
| 20260509062718 | 25 | 235 | 0.0 | 3.2 | 0.00 | 0.00 | 0.00 | 20 | 1013.3 |
| 20260509062215 | 25 | 135 | 0.0 | 1.6 | 0.00 | 0.00 | 0.00 | 20 | 1013.2 |
| 20260509061712 | 25 | 194 | 4.8 | 4.8 | 0.00 | 0.00 | 0.00 | 17 | 1013.3 |
| 20260509061210 | 25 | 141 | 3.2 | 3.2 | 0.00 | 0.00 | 0.00 | 16 | 1013.4 |
| 20260509060707 | 25 | 98 | 1.6 | 4.8 | 0.00 | 0.00 | 0.00 | 16 | 1013.4 |
| 20260509060203 | 25 | 197 | 0.0 | 3.2 | 0.00 | 0.00 | 0.00 | 17 | 1013.3 |
| 20260509055659 | 25 | 217 | 0.0 | 3.2 | 0.00 | 0.00 | 0.00 | 17 | 1013.4 |
| 20260509055155 | 25 | 223 | 3.2 | 4.8 | 0.00 | 0.00 | 0.00 | 17 | 1013.4 |
| 20260509054651 | 26 | 232 | 0.0 | 4.8 | 0.00 | 0.00 | 0.00 | 16 | 1013.7 |
| 20260509054149 | 26 | 240 | 1.6 | 6.4 | 0.00 | 0.00 | 0.00 | 16 | 1013.5 |
| 20260509053647 | 25 | 210 | 0.0 | 3.2 | 0.00 | 0.00 | 0.00 | 17 | 1013.4 |
| 20260509053144 | 25 | 248 | 0.0 | 3.2 | 0.00 | 0.00 | 0.00 | 16 | 1013.6 |
| 20260509052642 | 26 | 174 | 1.6 | 4.8 | 0.00 | 0.00 | 0.00 | 16 | 1013.6 |
| 20260509052139 | 25 | 228 | 1.6 | 3.2 | 0.00 | 0.00 | 0.00 | 16 | 1013.6 |
| 20260509051637 | 25 | 227 | 1.6 | 3.2 | 0.00 | 0.00 | 0.00 | 16 | 1013.7 |
| 20260509051134 | 26 | 231 | 0.0 | 3.2 | 0.00 | 0.00 | 0.00 | 16 | 1013.8 |
| 20260509050631 | 26 | 190 | 0.0 | 3.2 | 0.00 | 0.00 | 0.00 | 16 | 1013.5 |
| 20260509050127 | 26 | 73 | 0.0 | 6.4 | 0.00 | 0.00 | 0.00 | 15 | 1013.6 |
| 20260509045625 | 26 | 141 | 0.0 | 3.2 | 0.00 | 0.00 | 0.00 | 15 | 1013.5 |
| 20260509045121 | 27 | 180 | 1.6 | 3.2 | 0.00 | 0.00 | 0.00 | 15 | 1013.5 |
| 20260509044619 | 27 | 180 | 0.0 | 3.2 | 0.00 | 0.00 | 0.00 | 15 | 1013.4 |
| 20260509044116 | 28 | 174 | 1.6 | 3.2 | 0.00 | 0.00 | 0.00 | 15 | 1013.5 |
| 20260509043612 | 28 | 137 | 3.2 | 4.8 | 0.00 | 0.00 | 0.00 | 15 | 1013.5 |
| 20260509043108 | 28 | 162 | 4.8 | 6.4 | 0.00 | 0.00 | 0.00 | 15 | 1013.4 |
| 20260509042605 | 29 | 62 | 0.0 | 4.8 | 0.00 | 0.00 | 0.00 | 15 | 1013.3 |
| 20260509042100 | 28 | 154 | 3.2 | 3.2 | 0.00 | 0.00 | 0.00 | 15 | 1013.3 |
| 20260509041558 | 28 | 88 | 1.6 | 4.8 | 0.00 | 0.00 | 0.00 | 15 | 1013.3 |
| 20260509041055 | 29 | 85 | 1.6 | 4.8 | 0.00 | 0.00 | 0.00 | 15 | 1013.2 |
| 20260509040553 | 28 | 134 | 1.6 | 3.2 | 0.00 | 0.00 | 0.00 | 16 | 1013.1 |
| 20260509040050 | 28 | 109 | 3.2 | 3.2 | 0.00 | 0.00 | 0.00 | 15 | 1013.1 |
| 20260509035547 | 29 | 77 | 0.0 | 4.8 | 0.00 | 0.00 | 0.00 | 15 | 1013.1 |
| 20260509035043 | 29 | 94 | 1.6 | 3.2 | 0.00 | 0.00 | 0.00 | 15 | 1013.1 |
| 20260509034542 | 30 | 180 | 1.6 | 4.8 | 0.00 | 0.00 | 0.00 | 14 | 1013.0 |
| 20260509034038 | 30 | 76 | 3.2 | 3.2 | 0.00 | 0.00 | 0.00 | 14 | 1012.8 |
| 20260509033536 | 30 | 109 | 3.2 | 4.8 | 0.00 | 0.00 | 0.00 | 13 | 1012.9 |
| 20260509033032 | 31 | 163 | 1.6 | 4.8 | 0.00 | 0.00 | 0.00 | 13 | 1012.9 |
| 20260509032529 | 31 | 155 | 3.2 | 6.4 | 0.00 | 0.00 | 0.00 | 12 | 1012.8 |
| 20260509032027 | 32 | 182 | 1.6 | 9.7 | 0.00 | 0.00 | 0.00 | 11 | 1012.7 |
| 20260509031524 | 31 | 246 | 9.7 | 12.9 | 0.00 | 0.00 | 0.00 | 12 | 1012.7 |
| 20260509031021 | 32 | 248 | 6.4 | 16.1 | 0.00 | 0.00 | 0.00 | 12 | 1012.7 |
| 20260509030519 | 32 | 262 | 4.8 | 12.9 | 0.00 | 0.00 | 0.00 | 12 | 1012.7 |
| 20260509030016 | 31 | 285 | 8.0 | 12.9 | 0.00 | 0.00 | 0.00 | 12 | 1012.6 |
| 20260509025512 | 32 | 246 | 6.4 | 9.7 | 0.00 | 0.00 | 0.00 | 12 | 1012.5 |
| 20260509025007 | 32 | 267 | 1.6 | 12.9 | 0.00 | 0.00 | 0.00 | 13 | 1012.4 |
| 20260509024503 | 32 | 243 | 6.4 | 9.7 | 0.00 | 0.00 | 0.00 | 12 | 1012.1 |
| 20260509024000 | 32 | 236 | 8.0 | 19.3 | 0.00 | 0.00 | 0.00 | 13 | 1012.3 |
| 20260509023458 | 32 | 256 | 9.7 | 12.9 | 0.00 | 0.00 | 0.00 | 13 | 1012.2 |
| 20260509022954 | 32 | 266 | 11.3 | 17.7 | 0.00 | 0.00 | 0.00 | 13 | 1012.1 |
| 20260509022451 | 32 | 257 | 6.4 | 9.7 | 0.00 | 0.00 | 0.00 | 13 | 1012.4 |
| 20260509021949 | 32 | 291 | 6.4 | 12.9 | 0.00 | 0.00 | 0.00 | 13 | 1012.3 |
| 20260509021445 | 32 | 243 | 14.5 | 17.7 | 0.00 | 0.00 | 0.00 | 12 | 1012.1 |
| 20260509020943 | 33 | 265 | 6.4 | 14.5 | 0.00 | 0.00 | 0.00 | 12 | 1012.1 |
| 20260509020441 | 33 | 243 | 16.1 | 17.7 | 0.00 | 0.00 | 0.00 | 13 | 1012.2 |
| 20260509015938 | 33 | 253 | 11.3 | 17.7 | 0.00 | 0.00 | 0.00 | 13 | 1012.2 |
| 20260509015437 | 33 | 288 | 3.2 | 8.0 | 0.00 | 0.00 | 0.00 | 12 | 1012.1 |
| 20260509014933 | 33 | 258 | 6.4 | 16.1 | 0.00 | 0.00 | 0.00 | 13 | 1012.1 |
| 20260509014429 | 33 | 304 | 11.3 | 16.1 | 0.00 | 0.00 | 0.00 | 12 | 1012.2 |
| 20260509013926 | 33 | 287 | 12.9 | 17.7 | 0.00 | 0.00 | 0.00 | 12 | 1012.0 |
| 20260509013423 | 33 | 298 | 9.7 | 12.9 | 0.00 | 0.00 | 0.00 | 12 | 1012.0 |
| 20260509012918 | 34 | 265 | 9.7 | 19.3 | 0.00 | 0.00 | 0.00 | 12 | 1011.7 |
| 20260509012415 | 35 | 306 | 16.1 | 17.7 | 0.00 | 0.00 | 0.00 | 11 | 1012.1 |
| 20260509011913 | 36 | 262 | 11.3 | 16.1 | 0.00 | 0.00 | 0.00 | 11 | 1012.0 |
| 20260509011410 | 36 | 308 | 8.0 | 16.1 | 0.00 | 0.00 | 0.00 | 11 | 1012.0 |
| 20260509010908 | 35 | 312 | 19.3 | 25.7 | 0.00 | 0.00 | 0.00 | 11 | 1012.0 |
| 20260509010405 | 36 | 337 | 4.8 | 16.1 | 0.00 | 0.00 | 0.00 | 12 | 1011.8 |
| 20260509005902 | 36 | 327 | 11.3 | 19.3 | 0.00 | 0.00 | 0.00 | 11 | 1011.7 |
| 20260509005400 | 36 | 306 | 16.1 | 24.1 | 0.00 | 0.00 | 0.00 | 10 | 1011.8 |
| 20260509004900 | 36 | 331 | 19.3 | 25.7 | 0.00 | 0.00 | 0.00 | 11 | 1012.0 |
| 20260509004356 | 36 | 296 | 14.5 | 27.4 | 0.00 | 0.00 | 0.00 | 11 | 1011.8 |
| 20260509003854 | 36 | 323 | 12.9 | 27.4 | 0.00 | 0.00 | 0.00 | 10 | 1012.0 |
| 20260509003351 | 36 | 294 | 9.7 | 22.5 | 0.00 | 0.00 | 0.00 | 11 | 1012.0 |
| 20260509002848 | 36 | 319 | 12.9 | 29.0 | 0.00 | 0.00 | 0.00 | 11 | 1012.0 |
| 20260509002346 | 36 | 329 | 8.0 | 20.9 | 0.00 | 0.00 | 0.00 | 10 | 1012.0 |
| 20260509001844 | 36 | 304 | 20.9 | 29.0 | 0.00 | 0.00 | 0.00 | 11 | 1012.0 |
| 20260509001339 | 36 | 316 | 19.3 | 24.1 | 0.00 | 0.00 | 0.00 | 11 | 1011.7 |
| 20260509000837 | 36 | 311 | 22.5 | 35.4 | 0.00 | 0.00 | 0.00 | 11 | 1012.0 |
| 20260509000335 | 36 | 314 | 17.7 | 25.7 | 0.00 | 0.00 | 0.00 | 11 | 1011.7 |
| 20260508235831 | 36 | 307 | 12.9 | 27.4 | 0.00 | 0.00 | 0.00 | 12 | 1011.8 |
| 20260508235328 | 37 | 329 | 16.1 | 25.7 | 0.00 | 0.00 | 0.00 | 12 | 1011.8 |
| 20260508234825 | 37 | 288 | 11.3 | 20.9 | 0.00 | 0.00 | 0.00 | 12 | 1012.1 |
| 20260508234321 | 36 | 252 | 16.1 | 24.1 | 0.00 | 0.00 | 0.00 | 12 | 1012.1 |
| 20260508233820 | 37 | 290 | 9.7 | 29.0 | 0.00 | 0.00 | 0.00 | 12 | 1011.8 |
| 20260508233319 | 37 | 278 | 14.5 | 20.9 | 0.00 | 0.00 | 0.00 | 12 | 1012.1 |
| 20260508232815 | 37 | 281 | 14.5 | 29.0 | 0.00 | 0.00 | 0.00 | 12 | 1012.2 |
| 20260508232311 | 37 | 293 | 8.0 | 20.9 | 0.00 | 0.00 | 0.00 | 11 | 1012.0 |
| 20260508231810 | 37 | 274 | 14.5 | 32.2 | 0.00 | 0.00 | 0.00 | 12 | 1011.8 |
| 20260508231306 | 37 | 267 | 11.3 | 32.2 | 0.00 | 0.00 | 0.00 | 12 | 1012.2 |
| 20260508230803 | 37 | 278 | 9.7 | 29.0 | 0.00 | 0.00 | 0.00 | 12 | 1012.0 |
| 20260508230259 | 38 | 280 | 9.7 | 30.6 | 0.00 | 0.00 | 0.00 | 12 | 1012.0 |
| 20260508225757 | 37 | 249 | 16.1 | 33.8 | 0.00 | 0.00 | 0.00 | 12 | 1012.3 |
| 20260508225253 | 38 | 263 | 14.5 | 25.7 | 0.00 | 0.00 | 0.00 | 11 | 1012.3 |
| 20260508224751 | 38 | 275 | 12.9 | 32.2 | 0.00 | 0.00 | 0.00 | 11 | 1012.4 |
| 20260508224248 | 38 | 263 | 22.5 | 37.0 | 0.00 | 0.00 | 0.00 | 10 | 1012.2 |
| 20260508223746 | 38 | 247 | 24.1 | 27.4 | 0.00 | 0.00 | 0.00 | 10 | 1012.4 |
| 20260508223243 | 38 | 250 | 30.6 | 38.6 | 0.00 | 0.00 | 0.00 | 11 | 1012.5 |
| 20260508222741 | 38 | 242 | 24.1 | 33.8 | 0.00 | 0.00 | 0.00 | 11 | 1012.6 |
| 20260508222238 | 38 | 288 | 8.0 | 32.2 | 0.00 | 0.00 | 0.00 | 10 | 1012.5 |
| 20260508221734 | 38 | 255 | 14.5 | 27.4 | 0.00 | 0.00 | 0.00 | 10 | 1012.5 |
| 20260508221230 | 38 | 243 | 29.0 | 33.8 | 0.00 | 0.00 | 0.00 | 11 | 1012.6 |
| 20260508220726 | 38 | 282 | 11.3 | 25.7 | 0.00 | 0.00 | 0.00 | 10 | 1012.5 |
| 20260508220223 | 38 | 249 | 24.1 | 33.8 | 0.00 | 0.00 | 0.00 | 10 | 1012.8 |
| 20260508215719 | 38 | 248 | 27.4 | 37.0 | 0.00 | 0.00 | 0.00 | 10 | 1012.8 |
| 20260508215216 | 38 | 245 | 27.4 | 30.6 | 0.00 | 0.00 | 0.00 | 10 | 1012.8 |
| 20260508214713 | 38 | 252 | 32.2 | 33.8 | 0.00 | 0.00 | 0.00 | 10 | 1012.8 |
| 20260508214211 | 40 | 246 | 14.5 | 22.5 | 0.00 | 0.00 | 0.00 | 10 | 1012.8 |
| 20260508213707 | 38 | 260 | 17.7 | 24.1 | 0.00 | 0.00 | 0.00 | 10 | 1012.9 |
| 20260508213203 | 38 | 254 | 14.5 | 24.1 | 0.00 | 0.00 | 0.00 | 10 | 1013.1 |
| 20260508212700 | 38 | 237 | 14.5 | 32.2 | 0.00 | 0.00 | 0.00 | 11 | 1013.0 |
| 20260508212156 | 39 | 240 | 24.1 | 25.7 | 0.00 | 0.00 | 0.00 | 10 | 1013.0 |
| 20260508211652 | 38 | 261 | 24.1 | 35.4 | 0.00 | 0.00 | 0.00 | 11 | 1013.2 |
| 20260508211148 | 39 | 239 | 19.3 | 27.4 | 0.00 | 0.00 | 0.00 | 11 | 1013.3 |
| 20260508210645 | 39 | 265 | 20.9 | 27.4 | 0.00 | 0.00 | 0.00 | 10 | 1013.5 |
| 20260508210143 | 38 | 234 | 19.3 | 24.1 | 0.00 | 0.00 | 0.00 | 11 | 1013.5 |
| 20260508205640 | 38 | 265 | 16.1 | 25.7 | 0.00 | 0.00 | 0.00 | 11 | 1013.3 |
| 20260508205136 | 39 | 256 | 17.7 | 20.9 | 0.00 | 0.00 | 0.00 | 11 | 1013.5 |
| 20260508204632 | 39 | 276 | 4.8 | 22.5 | 0.00 | 0.00 | 0.00 | 10 | 1013.4 |
| 20260508204128 | 40 | 324 | 11.3 | 17.7 | 0.00 | 0.00 | 0.00 | 10 | 1013.3 |
| 20260508203625 | 38 | 305 | 12.9 | 16.1 | 0.00 | 0.00 | 0.00 | 11 | 1013.6 |
| 20260508203121 | 38 | 333 | 14.5 | 19.3 | 0.00 | 0.00 | 0.00 | 11 | 1013.5 |
| 20260508202617 | 38 | 313 | 12.9 | 20.9 | 0.00 | 0.00 | 0.00 | 10 | 1013.5 |
| 20260508202115 | 38 | 217 | 8.0 | 22.5 | 0.00 | 0.00 | 0.00 | 11 | 1013.4 |
| 20260508201611 | 39 | 286 | 14.5 | 24.1 | 0.00 | 0.00 | 0.00 | 10 | 1013.6 |
| 20260508201108 | 38 | 316 | 9.7 | 22.5 | 0.00 | 0.00 | 0.00 | 11 | 1013.6 |
| 20260508200605 | 38 | 312 | 14.5 | 22.5 | 0.00 | 0.00 | 0.00 | 11 | 1013.7 |
| 20260508195557 | 38 | 296 | 17.7 | 27.4 | 0.00 | 0.00 | 0.00 | 11 | 1013.7 |
| 20260508195054 | 38 | 314 | 16.1 | 22.5 | 0.00 | 0.00 | 0.00 | 11 | 1013.7 |
| 20260508194551 | 38 | 289 | 9.7 | 25.7 | 0.00 | 0.00 | 0.00 | 12 | 1013.8 |
| 20260508194048 | 38 | 316 | 14.5 | 19.3 | 0.00 | 0.00 | 0.00 | 12 | 1013.9 |
| 20260508193544 | 39 | 246 | 14.5 | 19.3 | 0.00 | 0.00 | 0.00 | 11 | 1014.0 |
| 20260508193041 | 38 | 304 | 8.0 | 22.5 | 0.00 | 0.00 | 0.00 | 11 | 1013.9 |
| 20260508192538 | 38 | 261 | 12.9 | 25.7 | 0.00 | 0.00 | 0.00 | 11 | 1014.0 |
| 20260508192035 | 38 | 320 | 17.7 | 24.1 | 0.00 | 0.00 | 0.00 | 10 | 1014.0 |
| 20260508191532 | 38 | 338 | 4.8 | 9.7 | 0.00 | 0.00 | 0.00 | 11 | 1014.1 |
| 20260508191028 | 38 | 325 | 11.3 | 16.1 | 0.00 | 0.00 | 0.00 | 11 | 1014.1 |
| 20260508190526 | 38 | 356 | 3.2 | 17.7 | 0.00 | 0.00 | 0.00 | 11 | 1014.3 |
| 20260508190022 | 38 | 257 | 1.6 | 8.0 | 0.00 | 0.00 | 0.00 | 11 | 1014.3 |
| 20260508185519 | 40 | 228 | 1.6 | 4.8 | 0.00 | 0.00 | 0.00 | 12 | 1014.4 |
| 20260508185017 | 39 | 320 | 1.6 | 4.8 | 0.00 | 0.00 | 0.00 | 13 | 1014.3 |
| 20260508184514 | 38 | 44 | 0.0 | 3.2 | 0.00 | 0.00 | 0.00 | 12 | 1014.4 |
| 20260508184011 | 38 | 53 | 4.8 | 9.7 | 0.00 | 0.00 | 0.00 | 12 | 1014.5 |
| 20260508183507 | 38 | 93 | 4.8 | 9.7 | 0.00 | 0.00 | 0.00 | 13 | 1014.5 |
| 20260508183003 | 38 | 130 | 6.4 | 6.4 | 0.00 | 0.00 | 0.00 | 12 | 1014.3 |
| 20260508182500 | 38 | 119 | 8.0 | 9.7 | 0.00 | 0.00 | 0.00 | 12 | 1014.6 |
| 20260508181956 | 38 | 105 | 4.8 | 12.9 | 0.00 | 0.00 | 0.00 | 13 | 1014.5 |
| 20260508181452 | 37 | 174 | 4.8 | 6.4 | 0.00 | 0.00 | 0.00 | 13 | 1014.5 |
| 20260508180950 | 38 | 191 | 4.8 | 6.4 | 0.00 | 0.00 | 0.00 | 13 | 1014.6 |
| 20260508180446 | 37 | 109 | 6.4 | 9.7 | 0.00 | 0.00 | 0.00 | 13 | 1014.7 |
| 20260508175942 | 37 | 309 | 6.4 | 6.4 | 0.00 | 0.00 | 0.00 | 14 | 1014.8 |
| 20260508175439 | 37 | 161 | 1.6 | 11.3 | 0.00 | 0.00 | 0.00 | 13 | 1014.8 |
| 20260508174937 | 37 | 216 | 4.8 | 6.4 | 0.00 | 0.00 | 0.00 | 13 | 1014.8 |
| 20260508174434 | 37 | 180 | 3.2 | 8.0 | 0.00 | 0.00 | 0.00 | 13 | 1014.9 |
| 20260508173931 | 37 | 80 | 1.6 | 8.0 | 0.00 | 0.00 | 0.00 | 13 | 1014.9 |
| 20260508173428 | 37 | 160 | 1.6 | 8.0 | 0.00 | 0.00 | 0.00 | 13 | 1014.8 |
| 20260508172923 | 37 | 108 | 3.2 | 8.0 | 0.00 | 0.00 | 0.00 | 13 | 1014.7 |
| 20260508172422 | 36 | 107 | 3.2 | 9.7 | 0.00 | 0.00 | 0.00 | 14 | 1014.8 |
| 20260508171917 | 36 | 182 | 3.2 | 9.7 | 0.00 | 0.00 | 0.00 | 14 | 1014.7 |
| 20260508171414 | 36 | 145 | 3.2 | 8.0 | 0.00 | 0.00 | 0.00 | 14 | 1014.9 |
| 20260508170910 | 36 | 102 | 4.8 | 8.0 | 0.00 | 0.00 | 0.00 | 15 | 1015.0 |
| 20260508170408 | 37 | 114 | 6.4 | 6.4 | 0.00 | 0.00 | 0.00 | 14 | 1014.9 |
| 20260508165904 | 36 | 208 | 3.2 | 6.4 | 0.00 | 0.00 | 0.00 | 15 | 1014.9 |
| 20260508165403 | 36 | 239 | 4.8 | 4.8 | 0.00 | 0.00 | 0.00 | 15 | 1014.9 |
| 20260508164858 | 35 | 170 | 4.8 | 8.0 | 0.00 | 0.00 | 0.00 | 16 | 1015.1 |
| 20260508164355 | 35 | 135 | 3.2 | 6.4 | 0.00 | 0.00 | 0.00 | 16 | 1015.2 |
| 20260508163853 | 35 | 111 | 0.0 | 8.0 | 0.00 | 0.00 | 0.00 | 16 | 1015.1 |
| 20260508163350 | 35 | 188 | 4.8 | 6.4 | 0.00 | 0.00 | 0.00 | 17 | 1015.2 |
| 20260508162845 | 35 | 111 | 1.6 | 6.4 | 0.00 | 0.00 | 0.00 | 17 | 1015.1 |
| 20260508162342 | 35 | 177 | 0.0 | 4.8 | 0.00 | 0.00 | 0.00 | 17 | 1015.1 |
| 20260508161839 | 33 | 171 | 3.2 | 3.2 | 0.00 | 0.00 | 0.00 | 17 | 1015.0 |
| 20260508161337 | 34 | 100 | 3.2 | 4.8 | 0.00 | 0.00 | 0.00 | 17 | 1015.1 |
| 20260508160834 | 33 | 169 | 3.2 | 6.4 | 0.00 | 0.00 | 0.00 | 18 | 1015.1 |
| 20260508160333 | 33 | 197 | 3.2 | 4.8 | 0.00 | 0.00 | 0.00 | 19 | 1015.2 |
| 20260508155828 | 33 | 105 | 3.2 | 3.2 | 0.00 | 0.00 | 0.00 | 19 | 1015.2 |
| 20260508155326 | 33 | 78 | 3.2 | 6.4 | 0.00 | 0.00 | 0.00 | 19 | 1015.1 |
| 20260508154822 | 33 | 70 | 3.2 | 4.8 | 0.00 | 0.00 | 0.00 | 19 | 1015.2 |
| 20260508154320 | 32 | 63 | 1.6 | 4.8 | 0.00 | 0.00 | 0.00 | 20 | 1015.0 |
| 20260508153816 | 32 | 47 | 1.6 | 6.4 | 0.00 | 0.00 | 0.00 | 20 | 1015.1 |
| 20260508153314 | 32 | 110 | 8.0 | 8.0 | 0.00 | 0.00 | 0.00 | 20 | 1015.2 |
| 20260508152810 | 31 | 93 | 3.2 | 4.8 | 0.00 | 0.00 | 0.00 | 20 | 1015.3 |
| 20260508152306 | 32 | 89 | 4.8 | 6.4 | 0.00 | 0.00 | 0.00 | 20 | 1015.2 |
| 20260508151802 | 31 | 198 | 0.0 | 9.7 | 0.00 | 0.00 | 0.00 | 21 | 1015.2 |
| 20260508151300 | 32 | 357 | 1.6 | 3.2 | 0.00 | 0.00 | 0.00 | 20 | 1015.2 |
| 20260508150756 | 32 | 101 | 3.2 | 4.8 | 0.00 | 0.00 | 0.00 | 20 | 1015.1 |
| 20260508150253 | 31 | 17 | 0.0 | 3.2 | 0.00 | 0.00 | 0.00 | 21 | 1015.2 |
| 20260508145749 | 31 | 83 | 0.0 | 3.2 | 0.00 | 0.00 | 0.00 | 21 | 1015.1 |
| 20260508145245 | 30 | 93 | 8.0 | 8.0 | 0.00 | 0.00 | 0.00 | 22 | 1015.0 |
| 20260508144742 | 30 | 294 | 3.2 | 3.2 | 0.00 | 0.00 | 0.00 | 22 | 1015.1 |
| 20260508144240 | 30 | 164 | 0.0 | 3.2 | 0.00 | 0.00 | 0.00 | 23 | 1015.1 |
| 20260508143737 | 30 | 231 | 0.0 | 3.2 | 0.00 | 0.00 | 0.00 | 23 | 1015.0 |
| 20260508143234 | 28 | 276 | 0.0 | 6.4 | 0.00 | 0.00 | 0.00 | 24 | 1015.1 |
| 20260508142730 | 30 | 89 | 0.0 | 3.2 | 0.00 | 0.00 | 0.00 | 23 | 1015.0 |
| 20260508142228 | 28 | 214 | 1.6 | 3.2 | 0.00 | 0.00 | 0.00 | 24 | 1015.0 |
| 20260508141724 | 28 | 24 | 1.6 | 1.6 | 0.00 | 0.00 | 0.00 | 24 | 1015.1 |
| 20260508141222 | 27 | 308 | 1.6 | 3.2 | 0.00 | 0.00 | 0.00 | 25 | 1015.0 |
| 20260508140719 | 26 | 106 | 0.0 | 3.2 | 0.00 | 0.00 | 0.00 | 26 | 1014.7 |
| 20260508140215 | 26 | 262 | 3.2 | 3.2 | 0.00 | 0.00 | 0.00 | 27 | 1015.0 |
| 20260508135712 | 25 | 12 | 0.0 | 4.8 | 0.00 | 0.00 | 0.00 | 28 | 1015.0 |
| 20260508135207 | 26 | 4 | 0.0 | 3.2 | 0.00 | 0.00 | 0.00 | 27 | 1014.7 |
| 20260508134703 | 26 | 111 | 1.6 | 3.2 | 0.00 | 0.00 | 0.00 | 28 | 1014.5 |
| 20260508134201 | 25 | 276 | 0.0 | 3.2 | 0.00 | 0.00 | 0.00 | 27 | 1014.6 |
| 20260508133658 | 23 | 190 | 3.2 | 3.2 | 0.00 | 0.00 | 0.00 | 29 | 1014.6 |
| 20260508133155 | 23 | 66 | 0.0 | 3.2 | 0.00 | 0.00 | 0.00 | 28 | 1014.5 |
| 20260508132653 | 23 | 218 | 0.0 | 3.2 | 0.00 | 0.00 | 0.00 | 30 | 1014.5 |
| 20260508132149 | 21 | 200 | 3.2 | 3.2 | 0.00 | 0.00 | 0.00 | 31 | 1014.4 |
| 20260508131645 | 21 | 221 | 3.2 | 3.2 | 0.00 | 0.00 | 0.00 | 31 | 1014.4 |
| 20260508131142 | 22 | 215 | 0.0 | 4.8 | 0.00 | 0.00 | 0.00 | 31 | 1014.4 |
| 20260508130638 | 22 | 109 | 1.6 | 3.2 | 0.00 | 0.00 | 0.00 | 31 | 1014.2 |
| 20260508130136 | 22 | 113 | 0.0 | 3.2 | 0.00 | 0.00 | 0.00 | 30 | 1014.2 |
| 20260508125631 | 22 | 204 | 0.0 | 4.8 | 0.00 | 0.00 | 0.00 | 30 | 1014.2 |
| 20260508125128 | 22 | 81 | 1.6 | 3.2 | 0.00 | 0.00 | 0.00 | 31 | 1014.1 |
| 20260508124626 | 22 | 148 | 1.6 | 3.2 | 0.00 | 0.00 | 0.00 | 30 | 1014.2 |
| 20260508124123 | 22 | 118 | 3.2 | 4.8 | 0.00 | 0.00 | 0.00 | 30 | 1013.9 |
| 20260508123621 | 23 | 79 | 1.6 | 3.2 | 0.00 | 0.00 | 0.00 | 30 | 1013.9 |
| 20260508123118 | 23 | 234 | 1.6 | 3.2 | 0.00 | 0.00 | 0.00 | 30 | 1013.9 |
| 20260508122614 | 23 | 199 | 0.0 | 3.2 | 0.00 | 0.00 | 0.00 | 29 | 1013.9 |
| 20260508122112 | 23 | 268 | 0.0 | 3.2 | 0.00 | 0.00 | 0.00 | 30 | 1013.7 |
| 20260508121610 | 23 | 174 | 3.2 | 3.2 | 0.00 | 0.00 | 0.00 | 30 | 1014.0 |
| 20260508121108 | 23 | 221 | 3.2 | 6.4 | 0.00 | 0.00 | 0.00 | 30 | 1013.9 |
| 20260508120605 | 23 | 345 | 1.6 | 4.8 | 0.00 | 0.00 | 0.00 | 28 | 1014.0 |
| 20260508120104 | 25 | 333 | 3.2 | 3.2 | 0.00 | 0.00 | 0.00 | 28 | 1013.9 |
| 20260508115601 | 25 | 69 | 0.0 | 1.6 | 0.00 | 0.00 | 0.00 | 28 | 1013.7 |
| 20260508115057 | 25 | 289 | 3.2 | 4.8 | 0.00 | 0.00 | 0.00 | 27 | 1013.8 |
| 20260508114554 | 26 | 27 | 8.0 | 8.0 | 0.00 | 0.00 | 0.00 | 26 | 1013.9 |
| 20260508114050 | 25 | 111 | 4.8 | 8.0 | 0.00 | 0.00 | 0.00 | 27 | 1013.7 |
| 20260508113548 | 23 | 291 | 3.2 | 3.2 | 0.00 | 0.00 | 0.00 | 28 | 1013.8 |
| 20260508113046 | 22 | 205 | 0.0 | 4.8 | 0.00 | 0.00 | 0.00 | 30 | 1013.7 |
| 20260508112542 | 23 | 15 | 3.2 | 3.2 | 0.00 | 0.00 | 0.00 | 32 | 1013.7 |
| 20260508112039 | 23 | 221 | 1.6 | 3.2 | 0.00 | 0.00 | 0.00 | 29 | 1013.7 |
| 20260508111536 | 23 | 324 | 3.2 | 3.2 | 0.00 | 0.00 | 0.00 | 29 | 1014.0 |
| 20260508111033 | 23 | 178 | 3.2 | 4.8 | 0.00 | 0.00 | 0.00 | 29 | 1013.8 |
| 20260508110531 | 24 | 353 | 0.0 | 3.2 | 0.00 | 0.00 | 0.00 | 28 | 1013.7 |
| 20260508110027 | 25 | 342 | 3.2 | 3.2 | 0.00 | 0.00 | 0.00 | 28 | 1013.6 |
| 20260508105522 | 25 | 16 | 3.2 | 6.4 | 0.00 | 0.00 | 0.00 | 27 | 1013.6 |
| 20260508105019 | 24 | 142 | 4.8 | 6.4 | 0.00 | 0.00 | 0.00 | 27 | 1013.6 |
| 20260508104517 | 24 | 39 | 3.2 | 3.2 | 0.00 | 0.00 | 0.00 | 28 | 1013.7 |
| 20260508104013 | 25 | 345 | 1.6 | 3.2 | 0.00 | 0.00 | 0.00 | 27 | 1013.6 |
| 20260508103510 | 25 | 246 | 0.0 | 4.8 | 0.00 | 0.00 | 0.00 | 26 | 1013.6 |
| 20260508103008 | 24 | 320 | 0.0 | 3.2 | 0.00 | 0.00 | 0.00 | 28 | 1013.7 |
| 20260508102505 | 25 | 62 | 3.2 | 4.8 | 0.00 | 0.00 | 0.00 | 27 | 1013.5 |
| 20260508102002 | 25 | 109 | 1.6 | 3.2 | 0.00 | 0.00 | 0.00 | 27 | 1013.9 |
| 20260508101500 | 25 | 103 | 0.0 | 3.2 | 0.00 | 0.00 | 0.00 | 27 | 1013.7 |
| 20260508100957 | 25 | 73 | 0.0 | 3.2 | 0.00 | 0.00 | 0.00 | 27 | 1013.9 |
| 20260508100455 | 25 | 343 | 0.0 | 4.8 | 0.00 | 0.00 | 0.00 | 27 | 1013.9 |
| 20260508095951 | 25 | 237 | 0.0 | 3.2 | 0.00 | 0.00 | 0.00 | 26 | 1013.7 |
| 20260508095449 | 25 | 129 | 1.6 | 4.8 | 0.00 | 0.00 | 0.00 | 27 | 1013.9 |
| 20260508094946 | 25 | 291 | 3.2 | 9.7 | 0.00 | 0.00 | 0.00 | 26 | 1013.8 |
| 20260508094442 | 25 | 92 | 4.8 | 6.4 | 0.00 | 0.00 | 0.00 | 26 | 1013.7 |
| 20260508093939 | 26 | 89 | 1.6 | 3.2 | 0.00 | 0.00 | 0.00 | 26 | 1013.9 |
| 20260508093437 | 26 | 121 | 1.6 | 3.2 | 0.00 | 0.00 | 0.00 | 25 | 1013.9 |
| 20260508092934 | 26 | 19 | 1.6 | 4.8 | 0.00 | 0.00 | 0.00 | 25 | 1014.0 |
| 20260508092432 | 26 | 268 | 3.2 | 6.4 | 0.00 | 0.00 | 0.00 | 25 | 1013.9 |
| 20260508091930 | 25 | 171 | 1.6 | 4.8 | 0.00 | 0.00 | 0.00 | 26 | 1014.0 |
| 20260508091426 | 25 | 141 | 3.2 | 4.8 | 0.00 | 0.00 | 0.00 | 26 | 1014.0 |
| 20260508090923 | 26 | 210 | 0.0 | 1.6 | 0.00 | 0.00 | 0.00 | 25 | 1013.9 |
| 20260508090422 | 27 | 89 | 4.8 | 8.0 | 0.00 | 0.00 | 0.00 | 24 | 1014.0 |
| 20260508085917 | 27 | 243 | 0.0 | 6.4 | 0.00 | 0.00 | 0.00 | 23 | 1013.9 |
| 20260508085414 | 27 | 98 | 6.4 | 8.0 | 0.00 | 0.00 | 0.00 | 23 | 1013.8 |
| 20260508084911 | 26 | 353 | 4.8 | 6.4 | 0.00 | 0.00 | 0.00 | 24 | 1014.0 |
| 20260508084408 | 26 | 128 | 1.6 | 6.4 | 0.00 | 0.00 | 0.00 | 24 | 1014.0 |
| 20260508083906 | 25 | 230 | 4.8 | 4.8 | 0.00 | 0.00 | 0.00 | 24 | 1014.1 |
| 20260508083403 | 26 | 324 | 0.0 | 1.6 | 0.00 | 0.00 | 0.00 | 24 | 1014.3 |
| 20260508082903 | 25 | 174 | 0.0 | 3.2 | 0.00 | 0.00 | 0.00 | 24 | 1014.3 |
| 20260508082401 | 26 | 264 | 3.2 | 6.4 | 0.00 | 0.00 | 0.00 | 24 | 1014.3 |
| 20260508081858 | 26 | 226 | 3.2 | 4.8 | 0.00 | 0.00 | 0.00 | 24 | 1014.3 |
| 20260508081355 | 26 | 141 | 3.2 | 8.0 | 0.00 | 0.00 | 0.00 | 24 | 1014.5 |
| 20260508080851 | 26 | 271 | 1.6 | 6.4 | 0.00 | 0.00 | 0.00 | 24 | 1014.6 |
| 20260508080350 | 26 | 313 | 4.8 | 6.4 | 0.00 | 0.00 | 0.00 | 24 | 1014.5 |
| 20260508075846 | 26 | 161 | 3.2 | 6.4 | 0.00 | 0.00 | 0.00 | 24 | 1014.5 |
| 20260508075343 | 26 | 72 | 3.2 | 6.4 | 0.00 | 0.00 | 0.00 | 24 | 1014.6 |
| 20260508074840 | 26 | 60 | 0.0 | 1.6 | 0.00 | 0.00 | 0.00 | 24 | 1014.5 |
| 20260508074337 | 27 | 273 | 1.6 | 4.8 | 0.00 | 0.00 | 0.00 | 23 | 1014.7 |
| 20260508073834 | 27 | 154 | 4.8 | 6.4 | 0.00 | 0.00 | 0.00 | 23 | 1014.6 |
| 20260508073332 | 27 | 77 | 3.2 | 6.4 | 0.00 | 0.00 | 0.00 | 22 | 1014.6 |